Regional Weather Roundup
Issued by NWS

Home | Current Version | Previous Version | Text Only | Print | Product List | Glossary Off
Versions: 1 2 3 4 5 6 7 8 9 10 11 12 13 14 15 16 17 18 19 20 21 22 23 24 25 26 27 28 29 30 31 32 33 34 35 36 37 38 39 40 41 42 43 44 45 46 47 48 49 50

000
ASUS43 KMKX 251311
RWRWI

WISCONSIN REGIONAL WEATHER ROUNDUP
NATIONAL WEATHER SERVICE MILWAUKEE/SULLIVAN WI
800 AM CDT SUN JUN 25 2017

NOTE: "FAIR" INDICATES FEW OR NO CLOUDS BELOW 12,000 FEET WITH NO
SIGNIFICANT WEATHER AND/OR OBSTRUCTIONS TO VISIBILITY.

WIZ001-002-006>008-014>016-023>028-251400-
NORTHWEST WISCONSIN

CITY           SKY/WX    TMP DP  RH WIND       PRES   REMARKS
SUPERIOR ARPT  NOT AVBL
ASHLAND        LGT RAIN  53  52  96 SW5       30.02S FOG
HAYWARD        CLOUDY    53  50  89 MISG      30.04R
SIREN          LGT RAIN  54  52  92 W6        30.07S
CUMBERLAND     CLOUDY    52  48  87 W12       30.07S
RICE LAKE      CLOUDY    54  50  86 W7        30.08S
CHETEK         CLOUDY    54  51  89 W9        30.07S
LADYSMITH      CLOUDY    55  51  88 W7        30.06R
EAU CLAIRE     CLOUDY    55  50  83 W10       30.07R
MENOMONIE      PTSUNNY   56  50  81 W14G21    30.09R
NEW RICHMOND   CLOUDY    55  47  75 W9        30.10S
OSCEOLA        CLOUDY    56  49  80 W8        30.12S
$$

WIZ003>005-009-010-017-018-251400-
NORTH CENTRAL WISCONSIN

CITY           SKY/WX    TMP DP  RH WIND       PRES   REMARKS
MANITOWISH WTR CLOUDY    53  53 100 NW6       30.01R
ARBOR VITAE    CLOUDY    57  54  90 W5        30.00R
WOODRUFF       CLOUDY    57  54  90 W5        30.00R
RHINELANDER    CLOUDY    54  52  93 NW6       30.01R
EAGLE RIVER    CLOUDY    54  51  91 N5        30.00R
LAND O LAKES   CLOUDY    52  50  95 CALM      30.02R
PHILLIPS       CLOUDY    51  51  98 W3        30.02S
TOMAHAWK       NOT AVBL
MEDFORD        CLOUDY    50  49  94 NW8       30.04R
MERRILL        CLOUDY    55  52  90 W8        30.03R
$$

WIZ029-030-035-036-043>047-251400-
CENTRAL WISCONSIN

CITY           SKY/WX    TMP DP  RH WIND       PRES   REMARKS
WAUSAU         CLOUDY    54  50  86 W8        30.02R
MOSINEE        PTSUNNY   54  50  87 NW8       30.04R
MARSHFIELD     CLOUDY    51  48  89 W12       30.05R
STEVENS POINT  CLOUDY    52  49  89 W5        30.04S
WAUPACA        PTSUNNY   56  51  82 W9        30.03R
WAUTOMA        SUNNY     58  50  75 W9        30.05R
WISC RAPIDS    MOSUNNY   54  49  83 NW12      30.06R
CAMP DOUGLAS   PTSUNNY   55  50  82 W14       30.08R
$$

WIZ011>013-019>022-031-037>040-048>050-251400-
NORTHEAST WISCONSIN

CITY           SKY/WX    TMP DP  RH WIND       PRES   REMARKS
ANTIGO         CLOUDY    54  51  91 NW7       30.02R
SHAWANO        MOSUNNY   58  52  80 NW8       29.99R
OCONTO         PTSUNNY   56  52  84 N9        29.97R
STURGEON BAY     N/A     55  52  89 NW10        N/A
GREEN BAY      PTSUNNY   57  53  86 NW13      29.99R
MANITOWOC      CLOUDY    58  49  72 W15       29.99R
APPLETON       MOSUNNY   54  48  82 W13       29.99S
CLINTONVILLE   PTSUNNY   55  48  76 NW10      30.01R
OSHKOSH        PTSUNNY   56  49  77 W8G21     30.02R
$$

WIZ032>034-041-042-053>061-251400-
SOUTHWEST WISCONSIN

CITY           SKY/WX    TMP DP  RH WIND       PRES   REMARKS
LA CROSSE      CLOUDY    60  50  69 W10       30.10R
SPARTA         CLOUDY    53  51  94 W5        30.10R
VIROQUA        CLOUDY    53  51  92 W8        30.11R
BOSCOBEL       SUNNY     58  50  75 VRB6      30.12R
PRAIRIE DU CHI SUNNY     57  48  72 W8        30.13R
PLATTEVILLE    SUNNY     56  52  88 W12       30.13S
$$

WIZ056-057-062-063-064-067-068-251400-
SOUTH CENTRAL WISCONSIN

CITY           SKY/WX    TMP DP  RH WIND       PRES   REMARKS
REEDSBURG      MOSUNNY   55  51  87 W12       30.09R
BARABOO/DELLS  SUNNY     55  48  77 W10G17    30.08R
LONE ROCK      SUNNY     57  50  77 W10       30.11R
MINERAL POINT  SUNNY     55  52  88 W8        30.12R
MADISON        MOSUNNY   56  50  80 NW12G17   30.08R
MIDDLETON      SUNNY     56  52  85 W14       30.09R
WATERTOWN      SUNNY     57  52  84 W12       30.06S
MONROE         SUNNY     55  48  76 W13G18    30.11R
JANESVILLE     SUNNY     57  52  82 W8        30.09R
$$

WIZ051-052-058>065-066-070>072-251400-
SOUTHEAST WISCONSIN

CITY           SKY/WX    TMP DP  RH WIND       PRES   REMARKS
MILWAUKEE      MOSUNNY   59  50  72 W13       30.05R
WAUKESHA       SUNNY     55  48  76 W13G18    30.06R
MILWAUKEE/TIMM SUNNY     57  46  67 W15G21    30.05R
RACINE         SUNNY     59  50  72 W13       30.07R
KENOSHA        SUNNY     59  49  69 W10       30.07R
FOND DU LAC    CLOUDY    57  48  72 W12       30.04R
SHEBOYGAN      SUNNY     58  51  78 W14       30.00R
WEST BEND      SUNNY     55  50  82 W9        30.03S
JUNEAU         SUNNY     55  49  79 W8        30.07R
$$

LSZ147-162-251400-
LAKE SUPERIOR

STATION/POSITION TIME  TEMP    WIND        PRES    WAVE
                       AIR SEA DIR/SP/G            HT/PER
                 (UTC) (F)     (DEG/KT/KT) (MB)    (FT/S)
W MID LAKE BUOY  1250   44 39  280/  4/  6 1015.9R   0
DEVILS ISLAND    1200   52     250/  9/ 10 1016.1R
SAXON HARBOR     1240   55     230/  4/  5 1015.9R
$$

LMZ867-665-643>646-251400-
LAKE MICHIGAN

STATION/POSITION TIME  TEMP    WIND        PRES    WAVE
                       AIR SEA DIR/SP/G            HT/PER
                 (UTC) (F)     (DEG/KT/KT) (MB)    (FT/S)
CHAMBERS ISLAND  1240   57     320/ 10/ 11 1013.9R
S GREEN BAY BUOY 1300   57     330/ 14/ 16 1014.6
N MID LAKE BUOY  1250   56 56  350/ 10/ 12 1014.3R   1/ 4
NORTHPORT PIER   1240   58     360/ 10/ 13 1013.9R
KEWAUNEE LAKESHO 1248   55     270/  9/ 13 1014.2R
SHEBOYGAN LAKESH 1300   58     270/ 12/ 14 1015.6R
PORT WASHINGTON  1240   60     280/ 10/ 18 1017.3R
ATWATER BUOY     1109   56 57  260/ 14/ 16 1016.6R
MILWAUKEE LAKESH 1250   58     280/ 13/ 16   N/A
S MID LAKE BUOY  1250   58 61  300/ 17/ 19 1017.2R   4/ 5
KENOSHA   LAKESH 1300   59     280/ 12/ 16 1018.3
$$

TC  - TEMPERATURE IN CELSIUS
VSB - VISIBILITY IN STATUTE MILES
WCI - WIND CHILL INDEX
HX  - HEAT INDEX




USA.gov is the U.S. government's official web portal to all federal, state and local government web resources and services.